Location: Castellar de la Frontera
(36.3200°N, 5.4500°W)
Time: 23:40:22
(UTC+02:00)

ISS - Visible Passes

Search period start: 22 May 2018 00:00
Search period end: 01 June 2018 00:00
Orbit: 402 x 407 km, 51.6° (Epoch: 23 May)

Date Brightness Start Highest point End Pass type
(mag) Time Alt. Az. Time Alt. Az. Time Alt. Az.
22 May -1.0 04:42:38 10° NNW 04:45:07 20° NNE 04:47:34 10° E visible
22 May -3.5 06:18:37 10° WNW 06:21:44 42° SW 06:24:49 10° SSE visible
22 May -2.1 22:56:42 10° WSW 22:59:44 35° NW 23:02:46 10° NNE visible
23 May -0.4 03:51:05 10° N 03:52:43 13° NNE 03:54:20 10° NE visible
23 May -3.9 05:26:22 10° NW 05:29:38 85° NE 05:32:52 10° SE visible
23 May -3.5 22:04:17 10° SW 22:07:31 71° NW 22:10:47 10° NE visible
23 May -0.4 23:43:11 10° NW 23:44:31 12° NNW 23:45:50 10° N visible
24 May-0.704:40:49ESE04:40:49ESE04:32:47NWvisible
24 May -2.2 06:14:01 16° SW 06:14:01 16° SW 06:15:43 10° SSW visible
24 May -0.7 22:49:46 10° WNW 22:52:05 18° NNW 22:54:23 10° NNE visible
25 May -1.5 21:56:50 10° W 21:59:43 28° NNW 22:02:37 10° NNE visible
26 May -0.3 22:43:50 10° NNW 22:44:31 10° NNW 22:45:12 10° N visible
30 May -0.5 00:58:52 10° N 00:59:43 12° NNE 00:59:43 12° NNE visible
